N8QF-1 Weather Reports


time (UTC)temp
F
wind
direction
speed
knots
gust
knots
rain 1hr
in
rain 24hr
in
rain mn
in
humidity
%
barometer
mb
20260509013537 59 294 0.0 6.1 0.00 0.00 0.00 72 1010.4
20260509013036 59 352 4.3 5.2 0.00 0.00 0.00 73 1010.4
20260509012536 59 350 0.9 3.5 0.00 0.00 0.00 72 1010.3
20260509012035 59 262 0.9 5.2 0.00 0.00 0.00 71 1010.3
20260509011535 60 21 3.5 7.0 0.00 0.00 0.00 70 1010.2
20260509011034 60 17 5.2 7.8 0.00 0.00 0.00 70 1010.1
20260509005533 61 309 4.3 6.1 0.00 0.00 0.00 69 1010.2
20260509004530 61 347 3.5 7.8 0.00 0.00 0.00 69 1010.0
20260509004029 61 311 5.2 0.0 0.00 0.00 0.00 69 1009.9
20260509003528 60 329 0.0 0.0 0.00 0.00 0.00 75 1009.6
20260509003028 61 329 0.0 0.0 0.00 0.00 0.00 72 1009.7
20260509002527 61 329 0.0 0.0 0.00 0.00 0.00 73 1009.7
20260509002027 61 329 0.0 0.0 0.00 0.00 0.00 69 1009.7
20260509001526 61 329 0.0 0.0 0.00 0.00 0.00 71 1009.6
20260509001026 61 329 0.0 0.0 0.00 0.00 0.00 70 1009.6
20260509000525 61 329 0.0 0.0 0.00 0.00 0.00 71 1009.7
20260509000025 61 329 0.0 0.0 0.00 0.00 0.00 71 1009.7
20260508235524 61 329 0.0 0.0 0.00 0.00 0.00 70 1009.6
20260508235024 61 329 0.0 0.0 0.00 0.00 0.00 68 1009.6
20260508234022 61 329 0.0 0.0 0.00 0.00 0.00 69 1009.5
20260508233521 62 329 0.0 0.0 0.00 0.00 0.00 70 1009.6
20260508232520 63 329 0.0 0.0 0.00 0.00 0.00 65 1009.7
20260508232020 64 329 0.0 0.0 0.00 0.00 0.00 61 1009.7
20260508231519 65 329 0.0 0.0 0.00 0.00 0.00 61 1009.7
20260508230018 65 308 2.6 0.0 0.00 0.00 0.00 51 1009.5
20260508225517 65 318 0.0 0.9 0.00 0.00 0.00 50 1009.5
20260508225016 65 318 0.0 2.6 0.00 0.00 0.00 51 1009.5
20260508224516 66 318 0.9 1.7 0.00 0.00 0.00 50 1009.2
20260508224015 66 318 0.0 2.6 0.00 0.00 0.00 48 1009.1
20260508223515 66 315 0.0 0.0 0.00 0.00 0.00 47 1009.1
20260508223014 66 259 0.0 0.0 0.00 0.00 0.00 45 1009.2
20260508222514 67 259 0.0 1.7 0.00 0.00 0.00 44 1009.2
20260508221512 67 284 0.0 6.1 0.00 0.00 0.00 41 1009.3
20260508221011 67 266 3.5 4.3 0.00 0.00 0.00 40 1009.2
20260508220511 67 311 0.0 4.3 0.00 0.00 0.00 41 1009.3
20260508220010 67 212 0.9 6.1 0.00 0.00 0.00 40 1009.3
20260508215510 67 210 0.0 4.3 0.00 0.00 0.00 40 1009.3
20260508215009 67 225 3.5 4.3 0.00 0.00 0.00 40 1009.3
20260508214509 68 263 1.7 6.1 0.00 0.00 0.00 39 1009.2
20260508214008 67 211 3.5 6.1 0.00 0.00 0.00 39 1009.3
20260508213508 68 240 0.9 9.6 0.00 0.00 0.00 39 1009.2
20260508213007 67 242 2.6 8.7 0.00 0.00 0.00 38 1009.1
20260508212006 68 225 0.0 9.6 0.00 0.00 0.00 39 1009.5
20260508211505 67 203 5.2 6.1 0.00 0.00 0.00 37 1009.6
20260508211005 68 229 3.5 9.6 0.00 0.00 0.00 38 1009.5
20260508210504 68 229 4.3 8.7 0.00 0.00 0.00 37 1009.6
20260508210003 68 240 3.5 11.3 0.00 0.00 0.00 38 1009.6
20260508205002 67 256 8.7 12.2 0.00 0.00 0.00 37 1009.9
20260508204501 68 200 6.1 17.4 0.00 0.00 0.00 38 1010.0
20260508203500 68 256 5.2 13.0 0.00 0.00 0.00 39 1010.1
20260508202459 68 243 6.1 16.5 0.00 0.00 0.00 38 1010.3
20260508201959 67 246 7.8 13.0 0.00 0.00 0.00 37 1010.5
20260508201458 67 242 8.7 13.0 0.00 0.00 0.00 37 1010.4
20260508200958 67 238 8.7 11.3 0.00 0.00 0.00 37 1010.4
20260508200457 68 203 7.8 11.3 0.00 0.00 0.00 37 1010.4
20260508195957 67 256 4.3 14.8 0.00 0.00 0.00 37 1010.5
20260508195456 67 225 8.7 13.0 0.00 0.00 0.00 37 1010.5
20260508194956 67 225 7.0 13.9 0.00 0.00 0.00 37 1010.7
20260508194455 67 221 7.8 16.5 0.00 0.00 0.00 36 1010.7
20260508193955 68 232 7.8 13.9 0.00 0.00 0.00 36 1010.6
20260508193454 68 246 9.6 9.6 0.00 0.00 0.00 36 1010.6
20260508192953 68 236 6.1 13.9 0.00 0.00 0.00 36 1010.7
20260508192453 68 255 7.0 13.0 0.00 0.00 0.00 37 1010.7
20260508191952 68 274 8.7 14.8 0.00 0.00 0.00 36 1010.7
20260508191452 68 245 5.2 20.9 0.00 0.00 0.00 36 1010.8
20260508190951 68 208 12.2 15.6 0.00 0.00 0.00 36 1011.0
20260508185950 69 212 7.8 18.2 0.00 0.00 0.00 37 1011.0
20260508185450 69 257 7.8 12.2 0.00 0.00 0.00 37 1011.1
20260508184949 69 245 7.0 14.8 0.00 0.00 0.00 39 1011.3
20260508184448 68 228 8.7 15.6 0.00 0.00 0.00 38 1011.3
20260508183947 68 229 8.7 15.6 0.00 0.00 0.00 40 1011.3
20260508183447 68 256 7.0 12.2 0.00 0.00 0.00 40 1011.4
20260508182946 68 229 7.0 15.6 0.00 0.00 0.00 38 1011.4
20260508182445 69 190 6.1 13.9 0.00 0.00 0.00 41 1011.5
20260508181944 68 250 7.8 17.4 0.00 0.00 0.00 39 1011.7
20260508180443 67 255 4.3 15.6 0.00 0.00 0.00 40 1011.8
20260508175439 66 252 9.6 13.0 0.00 0.00 0.00 39 1012.1
20260508174939 67 232 8.7 11.3 0.00 0.00 0.00 40 1012.2
20260508174438 67 252 6.1 16.5 0.00 0.00 0.00 41 1012.1
20260508173938 66 253 8.7 11.3 0.00 0.00 0.00 40 1012.1
20260508173437 66 198 7.8 13.9 0.00 0.00 0.00 41 1012.2
20260508172937 66 239 7.8 16.5 0.00 0.00 0.00 40 1012.4
20260508172436 66 225 12.2 15.6 0.00 0.00 0.00 41 1012.6
20260508171936 66 243 5.2 13.0 0.00 0.00 0.00 41 1012.7
20260508171435 66 194 4.3 15.6 0.00 0.00 0.00 40 1012.7
20260508170935 66 219 9.6 13.0 0.00 0.00 0.00 41 1012.8
20260508170434 66 221 8.7 24.3 0.00 0.00 0.00 40 1012.8
20260508165934 66 236 7.8 14.8 0.00 0.00 0.00 40 1012.8
20260508164933 68 218 7.0 13.0 0.00 0.00 0.00 40 1013.1
20260508163932 66 186 7.8 13.0 0.00 0.00 0.00 40 1013.3
20260508163431 67 219 7.8 19.1 0.00 0.00 0.00 42 1013.2
20260508162430 66 203 10.4 19.1 0.00 0.00 0.00 41 1013.5
20260508161930 65 253 9.6 15.6 0.00 0.00 0.00 41 1013.4
20260508161429 65 218 9.6 15.6 0.00 0.00 0.00 44 1013.4
20260508160427 65 240 8.7 13.0 0.00 0.00 0.00 44 1013.5
20260508155926 64 224 8.7 20.0 0.00 0.00 0.00 44 1013.6
20260508155425 64 233 9.6 14.8 0.00 0.00 0.00 43 1013.6
20260508154924 64 215 9.6 19.1 0.00 0.00 0.00 45 1013.7
20260508154424 64 217 9.6 17.4 0.00 0.00 0.00 44 1013.7
20260508153924 64 256 10.4 16.5 0.00 0.00 0.00 45 1013.8
20260508153423 63 235 7.0 14.8 0.00 0.00 0.00 46 1013.8
20260508152922 63 211 9.6 15.6 0.00 0.00 0.00 46 1013.8
20260508152422 63 195 8.7 13.9 0.00 0.00 0.00 45 1013.8
20260508151921 63 246 7.8 13.9 0.00 0.00 0.00 46 1014.0
20260508151421 62 218 7.8 13.9 0.00 0.00 0.00 48 1014.0
20260508150920 62 233 6.1 13.9 0.00 0.00 0.00 48 1014.1
20260508150420 61 217 8.7 14.8 0.00 0.00 0.00 47 1014.2
20260508145919 61 235 10.4 15.6 0.00 0.00 0.00 47 1014.1
20260508145419 61 276 10.4 15.6 0.00 0.00 0.00 49 1014.2
20260508144918 61 242 7.8 14.8 0.00 0.00 0.00 48 1014.2
20260508144418 60 243 7.0 10.4 0.00 0.00 0.00 48 1014.2
20260508143917 60 229 7.0 11.3 0.00 0.00 0.00 50 1014.3
20260508142916 59 226 10.4 13.9 0.00 0.00 0.00 50 1014.4
20260508142415 58 215 8.7 13.9 0.00 0.00 0.00 51 1014.5
20260508141915 58 215 9.6 12.2 0.00 0.00 0.00 51 1014.6
20260508140914 57 222 9.6 14.8 0.00 0.00 0.00 51 1014.8
20260508140413 57 219 9.6 13.0 0.00 0.00 0.00 51 1014.7
20260508135913 57 255 7.8 15.6 0.00 0.00 0.00 52 1014.7
20260508135413 56 240 8.7 13.0 0.00 0.00 0.00 52 1014.7
20260508134912 57 231 7.8 18.2 0.00 0.00 0.00 52 1014.8
20260508134411 56 235 10.4 16.5 0.00 0.00 0.00 51 1014.8
20260508133909 56 242 5.2 14.8 0.00 0.00 0.00 52 1014.8
20260508133408 56 250 8.7 11.3 0.00 0.00 0.00 51 1014.8
20260508132908 56 252 6.1 17.4 0.00 0.00 0.00 52 1014.8
20260508132407 56 239 6.1 15.6 0.00 0.00 0.00 52 1014.7
20260508131406 56 222 4.3 13.9 0.00 0.00 0.00 52 1014.7
20260508130906 55 246 4.3 13.9 0.00 0.00 0.00 53 1014.7
20260508130404 55 238 7.8 13.0 0.00 0.00 0.00 51 1014.7
20260508125904 55 205 7.8 7.8 0.00 0.00 0.00 51 1014.7
20260508125403 55 203 2.6 9.6 0.00 0.00 0.00 53 1014.7
20260508124903 55 214 6.1 10.4 0.00 0.00 0.00 53 1014.7
20260508124402 55 201 2.6 7.0 0.00 0.00 0.00 55 1014.7
20260508123901 54 195 2.6 7.0 0.00 0.00 0.00 56 1014.6
20260508123401 54 221 2.6 6.1 0.00 0.00 0.00 58 1014.6
20260508122901 53 176 0.9 6.1 0.00 0.00 0.00 58 1014.6
20260508122400 53 203 1.7 5.2 0.00 0.00 0.00 59 1014.7
20260508121859 53 214 2.6 4.3 0.00 0.00 0.00 59 1014.7
20260508121359 52 187 2.6 4.3 0.00 0.00 0.00 61 1014.8
20260508120358 51 150 0.0 2.6 0.00 0.00 0.00 62 1014.6
20260508115857 51 167 0.9 6.1 0.00 0.00 0.00 62 1014.6
20260508115357 51 210 2.6 6.1 0.00 0.00 0.00 62 1014.5
20260508113855 50 187 3.5 4.3 0.00 0.00 0.00 63 1014.4
20260508113355 50 177 0.0 3.5 0.00 0.00 0.00 64 1014.3
20260508112854 50 201 0.9 4.3 0.00 0.00 0.00 64 1014.3
20260508111853 50 200 2.6 5.2 0.00 0.00 0.00 64 1014.3
20260508111353 50 150 1.7 2.6 0.00 0.00 0.00 64 1014.1
20260508110852 50 170 0.9 3.5 0.00 0.00 0.00 64 1014.1
20260508105850 49 166 2.6 6.1 0.00 0.00 0.00 64 1014.1
20260508105349 49 200 1.7 4.3 0.00 0.00 0.00 65 1014.0
20260508104849 49 214 0.9 5.2 0.00 0.00 0.00 65 1014.0
20260508104347 49 138 1.7 5.2 0.00 0.00 0.00 65 1013.8
20260508103847 49 218 3.5 4.3 0.00 0.00 0.00 65 1014.0
20260508103346 49 214 1.7 5.2 0.00 0.00 0.00 65 1014.0
20260508102846 49 176 2.6 4.3 0.00 0.00 0.00 66 1014.1
20260508102345 49 183 1.7 4.3 0.00 0.00 0.00 66 1014.1
20260508101845 49 127 2.6 3.5 0.00 0.00 0.00 66 1014.1
20260508101344 49 194 0.9 4.3 0.00 0.00 0.00 67 1014.2
20260508100844 48 188 2.6 3.5 0.00 0.00 0.00 67 1014.1
20260508100343 48 152 0.9 4.3 0.00 0.00 0.00 67 1014.1
20260508095843 48 177 1.7 4.3 0.00 0.00 0.00 67 1014.1
20260508095342 48 174 2.6 4.3 0.00 0.00 0.00 67 1014.1
20260508094842 48 169 2.6 4.3 0.00 0.00 0.00 67 1014.2
20260508094341 48 159 2.6 3.5 0.00 0.00 0.00 68 1014.3
20260508093841 48 181 2.6 4.3 0.00 0.00 0.00 68 1014.2
20260508093340 48 165 3.5 4.3 0.00 0.00 0.00 69 1014.2
20260508092840 48 160 1.7 1.7 0.00 0.00 0.00 69 1014.3
20260508092339 48 162 0.0 0.9 0.00 0.00 0.00 69 1014.2
20260508091838 48 162 0.0 1.7 0.00 0.00 0.00 69 1014.3
20260508091425 48 153 0.0 2.6 0.00 0.00 0.00 69 1014.3
20260508091337 48 153 0.0 2.6 0.00 0.00 0.00 69 1014.3
20260508090836 48 127 0.9 0.0 0.00 0.00 0.00 69 1014.2
20260508090336 48 103 0.0 0.9 0.00 0.00 0.00 70 1014.2
20260508085835 48 103 0.9 0.0 0.00 0.00 0.00 70 1014.3
20260508085334 48 257 0.0 0.0 0.00 0.00 0.00 70 1014.1
20260508084333 48 257 0.0 0.0 0.00 0.00 0.00 69 1014.2
20260508083832 48 257 0.0 0.0 0.00 0.00 0.00 68 1014.1
20260508083332 48 257 0.0 3.5 0.00 0.00 0.00 68 1014.2
20260508082831 47 257 0.0 3.5 0.00 0.00 0.00 68 1014.2
20260508082330 47 214 1.7 5.2 0.00 0.00 0.00 69 1014.2
20260508081829 46 240 0.9 0.0 0.00 0.00 0.00 70 1014.2
20260508081329 46 232 0.0 0.0 0.00 0.00 0.00 70 1014.2
20260508080828 47 232 0.0 0.0 0.00 0.00 0.00 69 1014.2
20260508080328 47 232 0.0 0.0 0.00 0.00 0.00 68 1014.1
20260508075827 48 232 0.0 0.0 0.00 0.00 0.00 66 1014.2
20260508074826 48 207 0.0 2.6 0.00 0.00 0.00 65 1014.0
20260508074325 48 197 0.9 3.5 0.00 0.00 0.00 65 1014.1
20260508073825 48 240 0.9 1.7 0.00 0.00 0.00 66 1014.1
20260508073324 48 233 0.0 0.0 0.00 0.00 0.00 66 1014.1
20260508072824 48 207 0.0 0.0 0.00 0.00 0.00 66 1014.0
20260508072323 48 207 0.0 1.7 0.00 0.00 0.00 65 1014.1
20260508071823 48 207 0.0 1.7 0.00 0.00 0.00 64 1014.1
20260508071322 48 201 0.0 7.8 0.00 0.00 0.00 64 1014.2
20260508070822 48 253 0.9 0.0 0.00 0.00 0.00 65 1014.3
20260508070321 48 239 0.0 3.5 0.00 0.00 0.00 65 1014.3
20260508065821 48 215 1.7 2.6 0.00 0.00 0.00 65 1014.3
20260508065320 48 264 0.0 3.5 0.00 0.00 0.00 66 1014.4
20260508064820 47 86 0.0 3.5 0.00 0.00 0.00 67 1014.3
20260508064319 47 79 0.0 0.9 0.00 0.00 0.00 68 1014.4
20260508063819 47 184 0.0 0.0 0.00 0.00 0.00 69 1014.5
20260508063318 47 184 0.0 0.0 0.00 0.00 0.00 69 1014.6
20260508062818 47 184 0.0 0.0 0.00 0.00 0.00 69 1014.6
20260508062317 47 184 0.0 0.0 0.00 0.00 0.00 69 1014.7
20260508061817 47 184 0.0 0.0 0.00 0.00 0.00 68 1014.7
20260508061316 47 184 0.0 0.0 0.00 0.00 0.00 68 1014.7
20260508060815 47 184 0.0 0.0 0.00 0.00 0.00 68 1014.7
20260508060315 47 184 0.0 0.0 0.00 0.00 0.00 68 1014.8
20260508055815 47 184 0.0 0.0 0.00 0.00 0.00 69 1014.7
20260508055314 47 184 0.0 0.0 0.00 0.00 0.00 68 1014.7
20260508054813 47 184 0.0 0.0 0.00 0.00 0.00 67 1014.6
20260508054313 48 184 0.0 0.0 0.00 0.00 0.00 66 1014.7
20260508053813 48 184 0.0 0.0 0.00 0.00 0.00 65 1014.7
20260508053312 48 184 0.0 0.9 0.00 0.00 0.00 63 1014.8
20260508052811 49 162 0.0 0.0 0.00 0.00 0.00 63 1014.8
20260508052311 49 162 0.0 0.0 0.00 0.00 0.00 62 1014.8
20260508051810 50 162 0.0 0.0 0.00 0.00 0.00 60 1014.7
20260508051409 50 162 0.0 0.0 0.00 0.00 0.00 61 1014.7
20260508051310 50 162 0.0 0.0 0.00 0.00 0.00 61 1014.7
20260508050809 51 162 0.0 1.7 0.00 0.00 0.00 58 1014.6
20260508045808 51 188 0.0 4.3 0.00 0.00 0.00 56 1014.6
20260508045308 51 184 2.6 4.3 0.00 0.22 0.00 56 1014.7
20260508044807 51 239 1.7 0.0 0.00 0.22 0.00 56 1014.7
20260508044307 51 219 0.0 0.0 0.00 0.22 0.00 56 1014.6
20260508043806 51 219 0.0 2.6 0.00 0.22 0.00 56 1014.6
20260508043306 51 219 0.0 2.6 0.00 0.22 0.00 56 1014.5
20260508042805 52 214 1.7 3.5 0.00 0.22 0.00 55 1014.5
20260508042307 52 226 0.0 0.0 0.00 0.22 0.00 55 1014.5
20260508041303 52 226 0.0 4.3 0.00 0.22 0.00 54 1014.5
20260508040302 52 205 4.3 5.2 0.00 0.22 0.00 53 1014.5
20260508035803 53 203 0.0 6.1 0.00 0.22 0.00 52 1014.4
20260508035301 53 228 3.5 6.1 0.00 0.22 0.00 52 1014.3
20260508034300 53 191 2.6 5.2 0.00 0.22 0.00 52 1014.4
20260508033800 53 225 0.0 6.1 0.00 0.22 0.00 51 1014.5
20260508033259 53 205 3.5 5.2 0.00 0.22 0.00 51 1014.5
20260508032759 53 222 1.7 3.5 0.00 0.22 0.00 51 1014.5
20260508032258 53 211 0.0 5.2 0.00 0.22 0.00 50 1014.4
20260508031758 53 179 0.9 0.9 0.00 0.22 0.00 50 1014.3
20260508031257 54 259 0.0 2.6 0.00 0.22 0.00 50 1014.4
20260508030757 54 290 0.0 3.5 0.00 0.22 0.00 50 1014.5
20260508030256 54 186 0.0 2.6 0.00 0.22 0.00 50 1014.4
20260508025756 54 198 0.0 2.6 0.00 0.22 0.00 50 1014.3
20260508025255 54 198 0.0 4.3 0.00 0.22 0.00 50 1014.2
20260508024755 54 176 1.7 4.3 0.00 0.22 0.00 49 1014.2
20260508024254 54 149 2.6 2.6 0.00 0.22 0.00 48 1014.2
20260508023754 54 232 0.0 0.0 0.00 0.22 0.00 48 1014.4
20260508023253 54 232 0.0 0.9 0.00 0.22 0.00 48 1014.3
20260508022752 54 232 0.0 3.5 0.00 0.22 0.00 48 1014.4
20260508022252 54 231 2.6 1.7 0.00 0.22 0.00 48 1014.4
20260508021751 55 232 0.0 0.0 0.00 0.22 0.00 48 1014.4
20260508021251 55 232 0.0 0.9 0.00 0.22 0.00 48 1014.3
20260508020750 55 205 0.0 0.0 0.00 0.22 0.00 48 1014.2
20260508015749 55 217 1.7 0.0 0.00 0.22 0.00 46 1014.3
20260508014748 55 135 0.0 4.3 0.00 0.22 0.00 47 1014.2
20260508014248 55 188 2.6 0.0 0.00 0.22 0.00 48 1014.1
20260508013747 55 205 0.0 0.0 0.00 0.22 0.00 49 1014.2